Regional Weather Roundup
Issued by NWS Boston, MA

Home | Current Version | Previous Version | Text Only | Print | Product List | Glossary On
Versions: 1 2 3 4 5 6 7 8 9 10 11 12 13 14 15 16 17 18 19 20 21 22 23 24 25 26 27 28 29 30 31 32 33 34 35 36 37 38 39 40 41 42 43 44 45 46 47 48 49 50
000
ASUS41 KBOX 272110
RWRBOX

REGIONAL WEATHER ROUNDUP
NATIONAL WEATHER SERVICE TAUNTON MA
400 PM EST MON FEB 27 2017

NOTE:  "FAIR" INDICATES FEW OR NO CLOUDS BELOW 12,000 FEET WITH NO
SIGNIFICANT WEATHER AND/OR OBSTRUCTIONS TO VISIBILITY.

MAZALL-272200-
EASTERN MASSACHUSETTS

CITY           SKY/WX    TMP DP  RH WIND       PRES   REMARKS
BOSTON         MOSUNNY   53  16  23 SW23G33   30.26S
BEVERLY        SUNNY     53  16  23 W17G28    30.23S
LAWRENCE       MOSUNNY   52  18  26 SW14G22   30.24F
BEDFORD        SUNNY     53  10  18 W16G29    30.24S
BLUE HILL        N/A     50  14  23 W29G39    30.24S
NORWOOD        SUNNY     55  15  20 SW15G25   30.27R
MARSHFIELD     SUNNY     50  23  34 SW15G28   30.28R
PLYMOUTH       MOSUNNY   47  27  45 SW13G24   30.31R
TAUNTON        SUNNY     48  27  44 SW14G23   30.31R
NEW BEDFORD    PTSUNNY   46  30  53 SW15G22   30.33R
$$

MAZALL-272200-
CAPE COD AND THE ISLANDS

CITY           SKY/WX    TMP DP  RH WIND       PRES   REMARKS
FALMOUTH       MOSUNNY   45  30  57 MISG      30.35S
HYANNIS        MOSUNNY   46  29  51 SW24G38   30.33S
CHATHAM        MOSUNNY   45  35  68 SW14G24   30.35F
PROVINCETOWN   CLOUDY    44  34  67 SW25G31   30.30S
NANTUCKET      SUNNY     44  35  70 SW20      30.38S
MARTHAS VNYRD  SUNNY    N/A N/A N/A SW23      30.36S
$$

MAZALL-272200-
CENTRAL AND WESTERN MASSACHUSETTS

CITY           SKY/WX    TMP DP  RH WIND       PRES   REMARKS
WORCESTER      SUNNY     49  15  25 SW20G32   30.25R
FITCHBURG      SUNNY     54  17  23 W10G21    30.25R
ORANGE         SUNNY     50  18  28 SW10G24   30.25S
SPRINGFIELD    MOSUNNY   53  18  24 W15G26    30.26S
WESTFIELD      SUNNY     53  18  25 SW16G24   30.28R
NORTH ADAMS    SUNNY     50  19  29 W14G25    30.23F
PITTSFIELD     SUNNY     48  18  30 SW15G21   30.23R
$$

RIZALL-272200-
RHODE ISLAND

CITY           SKY/WX    TMP DP  RH WIND       PRES   REMARKS
PROVIDENCE     PTSUNNY   48  24  39 SW17G29   30.33R
NEWPORT        PTSUNNY   44  34  67 SW10G21   30.35R
BLOCK ISLAND   PTSUNNY   44  37  76 SW17G25   30.38R
SMITHFIELD     SUNNY     50  19  29 SW13G21   30.29S
WESTERLY       CLOUDY    47  29  49 SW14G21   30.37R
$$

CTZALL-272200-
CONNECTICUT

CITY           SKY/WX    TMP DP  RH WIND       PRES   REMARKS
BRADLEY INTL   MOSUNNY   54  16  22 SW10G20   30.29R
HARTFORD       SUNNY     53  19  26 S20G25    30.30F
BRIDGEPORT     CLOUDY    49  31  49 S15       30.35S
DANBURY        MOSUNNY   50  19  29 SW17G25   30.33S
GROTON         CLOUDY    45  33  63 SW18      30.36R
NEW HAVEN      CLOUDY    46  31  55 SW12      30.35S
CHESTER        FAIR      46  25  42 SW9G18    30.34S
MERIDEN        MOSUNNY   52  19  27 S13G22    30.33R
WILLIMANTIC    SUNNY     51  20  29 SW10G22   30.32R
OXFORD         MOSUNNY   50  18  27 SW8G18    30.32S
$$

MEZ002-015-021-024-NHZ003-005-008-011-012-014-VTZ005-008-272200-
NORTHERN NEW ENGLAND

CITY           SKY/WX    TMP DP  RH WIND       PRES   REMARKS
PORTLAND ME    PTSUNNY   50  18  28 W10       30.18S
BANGOR ME      CLOUDY    44  21  40 SW9       30.13R
CONCORD NH     SUNNY     51  17  26 W13G28    30.20S
MANCHESTER NH  MOSUNNY   53  14  21 W16G26    30.20S
NASHUA NH      MOSUNNY   53  17  24 W16G23    30.23S
PORTSMOUTH NH  MOSUNNY   52  18  25 SW14G23   30.19F
JAFFREY NH     SUNNY     48  16  27 SW8G26    30.22S
KEENE NH       SUNNY     51  19  28 SW13      30.23R
BURLINGTON VT  CLOUDY    46  24  42 W7        30.19R
MT. WASHINGTON FOG       16  16 100 W66G71      N/A  VSB 1/16WCI -11
$$

NYZ052-076-272200-
EASTERN NEW YORK

CITY           SKY/WX    TMP DP  RH WIND       PRES   REMARKS
ALBANY         MOSUNNY   53  19  26 W15G22    30.25S
NEW YORK CITY  CLOUDY    52  32  46 S10       30.35S
$$

ANZALL-272200-
MARINE OBSERVATIONS

STATION/POSITION TIME  TEMP    WIND        PRES    VSBY  WAVE
                       AIR SEA DIR/SP/G                  HT/PER
                 (UTC) (F)     (DEG/KT/KT) (MB)    (MI)  (FT/S)
BOSTON BUOY      1950   48 42  240/ 16/ 19 1023.4          2/ 3
BUZZARDS BAY     2000   42     230/ 22/ 25 1028.1F
NANTUCKET SOUND  1950   43 41  230/ 19/ 23 1028.0          2/ 5
MASS BAY-STELLWA 2004   47 42  240/ 14/ 17 1023.2F         2/ 4
ISLE OF SHOALS   2000   49     250/ 30/ 33 1022.5F
S OF BLOCK IS    2055      43                N/A           5/ 6
$$

......................KEY.........................
  SKY/WX - SKY CONDITION/PRESENT WEATHER
  TMP    - TEMPERATURE IN FAHRENHEIT
  DWPT   - DEWPOINT IN FAHRENHEIT
  RH     - RELATIVE HUMIDITY IN PERCENT
  WIND   - DIRECTION AND SPEED IN MPH
  PRES   - MEAN SEA LEVEL PRESSURE IN INCHES OF HG
  WCI    - WIND CHILL INDEX
  VSB    - VISIBILITY IN MILES
  HX     - HEAT INDEX
  TC     - TEMPERATURE IN CELSIUS
  VRB    - VARIABLE WIND DIRECTION
  N/A    - NOT AVAILABLE



USA.gov is the U.S. government's official web portal to all federal, state and local government web resources and services.